Index of /20260507/WXO-DD/model_caps/3km/00/009
Name Last modified Size Description
Parent Directory -
20260507T00Z_MSC_CAPS_AbsoluteVorticity_IsbL-0250_RLatLon0.03_PT009H.grib2 2026-05-07 06:07 1.1M
20260507T00Z_MSC_CAPS_AbsoluteVorticity_IsbL-0500_RLatLon0.03_PT009H.grib2 2026-05-07 06:07 1.1M
20260507T00Z_MSC_CAPS_AbsoluteVorticity_IsbL-0700_RLatLon0.03_PT009H.grib2 2026-05-07 06:07 1.3M
20260507T00Z_MSC_CAPS_AbsoluteVorticity_IsbL-0850_RLatLon0.03_PT009H.grib2 2026-05-07 06:07 1.3M
20260507T00Z_MSC_CAPS_AbsoluteVorticity_IsbL-1000_RLatLon0.03_PT009H.grib2 2026-05-07 06:07 1.3M
20260507T00Z_MSC_CAPS_AirDensity_AGL-120m_RLatLon0.03_PT009H.grib2 2026-05-07 06:07 1.4M
20260507T00Z_MSC_CAPS_AirDensity_AGL-40m_RLatLon0.03_PT009H.grib2 2026-05-07 06:07 1.4M
20260507T00Z_MSC_CAPS_AirDensity_AGL-80m_RLatLon0.03_PT009H.grib2 2026-05-07 06:07 1.4M
20260507T00Z_MSC_CAPS_AirTemp_AGL-120m_RLatLon0.03_PT009H.grib2 2026-05-07 06:07 1.4M
20260507T00Z_MSC_CAPS_AirTemp_AGL-2m_RLatLon0.03_PT009H.grib2 2026-05-07 06:07 1.8M
20260507T00Z_MSC_CAPS_AirTemp_AGL-40m_RLatLon0.03_PT009H.grib2 2026-05-07 06:07 1.5M
20260507T00Z_MSC_CAPS_AirTemp_AGL-80m_RLatLon0.03_PT009H.grib2 2026-05-07 06:07 1.4M
20260507T00Z_MSC_CAPS_AirTemp_IsbL-0050_RLatLon0.03_PT009H.grib2 2026-05-07 06:07 684K
20260507T00Z_MSC_CAPS_AirTemp_IsbL-0100_RLatLon0.03_PT009H.grib2 2026-05-07 06:07 781K
20260507T00Z_MSC_CAPS_AirTemp_IsbL-0150_RLatLon0.03_PT009H.grib2 2026-05-07 06:07 747K
20260507T00Z_MSC_CAPS_AirTemp_IsbL-0175_RLatLon0.03_PT009H.grib2 2026-05-07 06:07 779K
20260507T00Z_MSC_CAPS_AirTemp_IsbL-0200_RLatLon0.03_PT009H.grib2 2026-05-07 06:07 801K
20260507T00Z_MSC_CAPS_AirTemp_IsbL-0225_RLatLon0.03_PT009H.grib2 2026-05-07 06:07 800K
20260507T00Z_MSC_CAPS_AirTemp_IsbL-0250_RLatLon0.03_PT009H.grib2 2026-05-07 06:07 1.0M
20260507T00Z_MSC_CAPS_AirTemp_IsbL-0275_RLatLon0.03_PT009H.grib2 2026-05-07 06:07 1.0M
20260507T00Z_MSC_CAPS_AirTemp_IsbL-0300_RLatLon0.03_PT009H.grib2 2026-05-07 06:07 1.0M
20260507T00Z_MSC_CAPS_AirTemp_IsbL-0350_RLatLon0.03_PT009H.grib2 2026-05-07 06:07 753K
20260507T00Z_MSC_CAPS_AirTemp_IsbL-0400_RLatLon0.03_PT009H.grib2 2026-05-07 06:07 754K
20260507T00Z_MSC_CAPS_AirTemp_IsbL-0450_RLatLon0.03_PT009H.grib2 2026-05-07 06:07 770K
20260507T00Z_MSC_CAPS_AirTemp_IsbL-0500_RLatLon0.03_PT009H.grib2 2026-05-07 06:07 785K
20260507T00Z_MSC_CAPS_AirTemp_IsbL-0550_RLatLon0.03_PT009H.grib2 2026-05-07 06:07 796K
20260507T00Z_MSC_CAPS_AirTemp_IsbL-0600_RLatLon0.03_PT009H.grib2 2026-05-07 06:07 811K
20260507T00Z_MSC_CAPS_AirTemp_IsbL-0650_RLatLon0.03_PT009H.grib2 2026-05-07 06:07 839K
20260507T00Z_MSC_CAPS_AirTemp_IsbL-0700_RLatLon0.03_PT009H.grib2 2026-05-07 06:07 875K
20260507T00Z_MSC_CAPS_AirTemp_IsbL-0750_RLatLon0.03_PT009H.grib2 2026-05-07 06:07 910K
20260507T00Z_MSC_CAPS_AirTemp_IsbL-0800_RLatLon0.03_PT009H.grib2 2026-05-07 06:07 1.1M
20260507T00Z_MSC_CAPS_AirTemp_IsbL-0850_RLatLon0.03_PT009H.grib2 2026-05-07 06:07 1.1M
20260507T00Z_MSC_CAPS_AirTemp_IsbL-0875_RLatLon0.03_PT009H.grib2 2026-05-07 06:07 1.1M
20260507T00Z_MSC_CAPS_AirTemp_IsbL-0900_RLatLon0.03_PT009H.grib2 2026-05-07 06:07 1.1M
20260507T00Z_MSC_CAPS_AirTemp_IsbL-0925_RLatLon0.03_PT009H.grib2 2026-05-07 06:07 1.1M
20260507T00Z_MSC_CAPS_AirTemp_IsbL-0950_RLatLon0.03_PT009H.grib2 2026-05-07 06:07 1.1M
20260507T00Z_MSC_CAPS_AirTemp_IsbL-0970_RLatLon0.03_PT009H.grib2 2026-05-07 06:07 1.1M
20260507T00Z_MSC_CAPS_AirTemp_IsbL-0985_RLatLon0.03_PT009H.grib2 2026-05-07 06:07 1.1M
20260507T00Z_MSC_CAPS_AirTemp_IsbL-1000_RLatLon0.03_PT009H.grib2 2026-05-07 06:07 1.0M
20260507T00Z_MSC_CAPS_AirTemp_IsbL-1015_RLatLon0.03_PT009H.grib2 2026-05-07 06:07 1.1M
20260507T00Z_MSC_CAPS_Albedo_Sfc_RLatLon0.03_PT009H.grib2 2026-05-07 06:07 2.7M
20260507T00Z_MSC_CAPS_CAPE_Sfc_RLatLon0.03_PT009H.grib2 2026-05-07 06:07 239K
20260507T00Z_MSC_CAPS_CloudWater_EAtm_RLatLon0.03_PT009H.grib2 2026-05-07 06:07 1.5M
20260507T00Z_MSC_CAPS_ConvectivePrecip-Accum_Sfc_RLatLon0.03_PT009H.grib2 2026-05-07 06:07 2.6M
20260507T00Z_MSC_CAPS_DewPointDepression_AGL-120m_RLatLon0.03_PT009H.grib2 2026-05-07 06:07 2.1M
20260507T00Z_MSC_CAPS_DewPointDepression_AGL-2m_RLatLon0.03_PT009H.grib2 2026-05-07 06:07 2.2M
20260507T00Z_MSC_CAPS_DewPointDepression_AGL-40m_RLatLon0.03_PT009H.grib2 2026-05-07 06:07 2.1M
20260507T00Z_MSC_CAPS_DewPointDepression_AGL-80m_RLatLon0.03_PT009H.grib2 2026-05-07 06:07 2.1M
20260507T00Z_MSC_CAPS_DewPointDepression_IsbL-0050_RLatLon0.03_PT009H.grib2 2026-05-07 06:07 5.2K
20260507T00Z_MSC_CAPS_DewPointDepression_IsbL-0100_RLatLon0.03_PT009H.grib2 2026-05-07 06:07 56K
20260507T00Z_MSC_CAPS_DewPointDepression_IsbL-0150_RLatLon0.03_PT009H.grib2 2026-05-07 06:07 59K
20260507T00Z_MSC_CAPS_DewPointDepression_IsbL-0175_RLatLon0.03_PT009H.grib2 2026-05-07 06:07 195K
20260507T00Z_MSC_CAPS_DewPointDepression_IsbL-0200_RLatLon0.03_PT009H.grib2 2026-05-07 06:07 395K
20260507T00Z_MSC_CAPS_DewPointDepression_IsbL-0225_RLatLon0.03_PT009H.grib2 2026-05-07 06:07 583K
20260507T00Z_MSC_CAPS_DewPointDepression_IsbL-0250_RLatLon0.03_PT009H.grib2 2026-05-07 06:07 811K
20260507T00Z_MSC_CAPS_DewPointDepression_IsbL-0275_RLatLon0.03_PT009H.grib2 2026-05-07 06:07 954K
20260507T00Z_MSC_CAPS_DewPointDepression_IsbL-0300_RLatLon0.03_PT009H.grib2 2026-05-07 06:07 1.0M
20260507T00Z_MSC_CAPS_DewPointDepression_IsbL-0350_RLatLon0.03_PT009H.grib2 2026-05-07 06:07 1.0M
20260507T00Z_MSC_CAPS_DewPointDepression_IsbL-0400_RLatLon0.03_PT009H.grib2 2026-05-07 06:07 1.1M
20260507T00Z_MSC_CAPS_DewPointDepression_IsbL-0450_RLatLon0.03_PT009H.grib2 2026-05-07 06:07 1.1M
20260507T00Z_MSC_CAPS_DewPointDepression_IsbL-0500_RLatLon0.03_PT009H.grib2 2026-05-07 06:07 1.1M
20260507T00Z_MSC_CAPS_DewPointDepression_IsbL-0550_RLatLon0.03_PT009H.grib2 2026-05-07 06:07 1.2M
20260507T00Z_MSC_CAPS_DewPointDepression_IsbL-0600_RLatLon0.03_PT009H.grib2 2026-05-07 06:07 1.2M
20260507T00Z_MSC_CAPS_DewPointDepression_IsbL-0650_RLatLon0.03_PT009H.grib2 2026-05-07 06:07 1.2M
20260507T00Z_MSC_CAPS_DewPointDepression_IsbL-0700_RLatLon0.03_PT009H.grib2 2026-05-07 06:07 1.3M
20260507T00Z_MSC_CAPS_DewPointDepression_IsbL-0750_RLatLon0.03_PT009H.grib2 2026-05-07 06:07 1.3M
20260507T00Z_MSC_CAPS_DewPointDepression_IsbL-0800_RLatLon0.03_PT009H.grib2 2026-05-07 06:07 1.3M
20260507T00Z_MSC_CAPS_DewPointDepression_IsbL-0850_RLatLon0.03_PT009H.grib2 2026-05-07 06:07 1.4M
20260507T00Z_MSC_CAPS_DewPointDepression_IsbL-0875_RLatLon0.03_PT009H.grib2 2026-05-07 06:07 1.4M
20260507T00Z_MSC_CAPS_DewPointDepression_IsbL-0900_RLatLon0.03_PT009H.grib2 2026-05-07 06:07 1.4M
20260507T00Z_MSC_CAPS_DewPointDepression_IsbL-0925_RLatLon0.03_PT009H.grib2 2026-05-07 06:07 1.4M
20260507T00Z_MSC_CAPS_DewPointDepression_IsbL-0950_RLatLon0.03_PT009H.grib2 2026-05-07 06:07 1.4M
20260507T00Z_MSC_CAPS_DewPointDepression_IsbL-0970_RLatLon0.03_PT009H.grib2 2026-05-07 06:07 1.4M
20260507T00Z_MSC_CAPS_DewPointDepression_IsbL-0985_RLatLon0.03_PT009H.grib2 2026-05-07 06:07 1.4M
20260507T00Z_MSC_CAPS_DewPointDepression_IsbL-1000_RLatLon0.03_PT009H.grib2 2026-05-07 06:07 1.4M
20260507T00Z_MSC_CAPS_DewPointDepression_IsbL-1015_RLatLon0.03_PT009H.grib2 2026-05-07 06:07 1.4M
20260507T00Z_MSC_CAPS_DewPoint_AGL-120m_RLatLon0.03_PT009H.grib2 2026-05-07 06:07 3.6M
20260507T00Z_MSC_CAPS_DewPoint_AGL-2m_RLatLon0.03_PT009H.grib2 2026-05-07 06:07 1.8M
20260507T00Z_MSC_CAPS_DewPoint_AGL-40m_RLatLon0.03_PT009H.grib2 2026-05-07 06:07 3.7M
20260507T00Z_MSC_CAPS_DewPoint_AGL-80m_RLatLon0.03_PT009H.grib2 2026-05-07 06:07 3.7M
20260507T00Z_MSC_CAPS_DownwardLongwaveRadiationFlux-Accum_Sfc_RLatLon0.03_PT009H.grib2 2026-05-07 06:07 2.8M
20260507T00Z_MSC_CAPS_DownwardShortwaveRadiationFlux-Accum_NTAtm_RLatLon0.03_PT009H.grib2 2026-05-07 06:07 451K
20260507T00Z_MSC_CAPS_DownwardShortwaveRadiationFlux-Accum_Sfc_RLatLon0.03_PT009H.grib2 2026-05-07 06:07 2.2M
20260507T00Z_MSC_CAPS_FreezingRain-Accum_Sfc_RLatLon0.03_PT009H.grib2 2026-05-07 06:07 295K
20260507T00Z_MSC_CAPS_GeopotentialHeight_IsbL-0050_RLatLon0.03_PT009H.grib2 2026-05-07 06:07 819K
20260507T00Z_MSC_CAPS_GeopotentialHeight_IsbL-0100_RLatLon0.03_PT009H.grib2 2026-05-07 06:07 808K
20260507T00Z_MSC_CAPS_GeopotentialHeight_IsbL-0150_RLatLon0.03_PT009H.grib2 2026-05-07 06:07 599K
20260507T00Z_MSC_CAPS_GeopotentialHeight_IsbL-0175_RLatLon0.03_PT009H.grib2 2026-05-07 06:07 718K
20260507T00Z_MSC_CAPS_GeopotentialHeight_IsbL-0200_RLatLon0.03_PT009H.grib2 2026-05-07 06:07 740K
20260507T00Z_MSC_CAPS_GeopotentialHeight_IsbL-0225_RLatLon0.03_PT009H.grib2 2026-05-07 06:07 753K
20260507T00Z_MSC_CAPS_GeopotentialHeight_IsbL-0250_RLatLon0.03_PT009H.grib2 2026-05-07 06:07 762K
20260507T00Z_MSC_CAPS_GeopotentialHeight_IsbL-0275_RLatLon0.03_PT009H.grib2 2026-05-07 06:07 769K
20260507T00Z_MSC_CAPS_GeopotentialHeight_IsbL-0300_RLatLon0.03_PT009H.grib2 2026-05-07 06:07 775K
20260507T00Z_MSC_CAPS_GeopotentialHeight_IsbL-0350_RLatLon0.03_PT009H.grib2 2026-05-07 06:07 773K
20260507T00Z_MSC_CAPS_GeopotentialHeight_IsbL-0400_RLatLon0.03_PT009H.grib2 2026-05-07 06:07 770K
20260507T00Z_MSC_CAPS_GeopotentialHeight_IsbL-0450_RLatLon0.03_PT009H.grib2 2026-05-07 06:07 763K
20260507T00Z_MSC_CAPS_GeopotentialHeight_IsbL-0500_RLatLon0.03_PT009H.grib2 2026-05-07 06:07 756K
20260507T00Z_MSC_CAPS_GeopotentialHeight_IsbL-0550_RLatLon0.03_PT009H.grib2 2026-05-07 06:07 636K
20260507T00Z_MSC_CAPS_GeopotentialHeight_IsbL-0600_RLatLon0.03_PT009H.grib2 2026-05-07 06:07 632K
20260507T00Z_MSC_CAPS_GeopotentialHeight_IsbL-0650_RLatLon0.03_PT009H.grib2 2026-05-07 06:07 804K
20260507T00Z_MSC_CAPS_GeopotentialHeight_IsbL-0700_RLatLon0.03_PT009H.grib2 2026-05-07 06:07 805K
20260507T00Z_MSC_CAPS_GeopotentialHeight_IsbL-0750_RLatLon0.03_PT009H.grib2 2026-05-07 06:07 804K
20260507T00Z_MSC_CAPS_GeopotentialHeight_IsbL-0800_RLatLon0.03_PT009H.grib2 2026-05-07 06:07 889K
20260507T00Z_MSC_CAPS_GeopotentialHeight_IsbL-0850_RLatLon0.03_PT009H.grib2 2026-05-07 06:07 893K
20260507T00Z_MSC_CAPS_GeopotentialHeight_IsbL-0875_RLatLon0.03_PT009H.grib2 2026-05-07 06:07 898K
20260507T00Z_MSC_CAPS_GeopotentialHeight_IsbL-0900_RLatLon0.03_PT009H.grib2 2026-05-07 06:07 906K
20260507T00Z_MSC_CAPS_GeopotentialHeight_IsbL-0925_RLatLon0.03_PT009H.grib2 2026-05-07 06:07 915K
20260507T00Z_MSC_CAPS_GeopotentialHeight_IsbL-0950_RLatLon0.03_PT009H.grib2 2026-05-07 06:07 928K
20260507T00Z_MSC_CAPS_GeopotentialHeight_IsbL-0970_RLatLon0.03_PT009H.grib2 2026-05-07 06:07 939K
20260507T00Z_MSC_CAPS_GeopotentialHeight_IsbL-0985_RLatLon0.03_PT009H.grib2 2026-05-07 06:07 946K
20260507T00Z_MSC_CAPS_GeopotentialHeight_IsbL-1000_RLatLon0.03_PT009H.grib2 2026-05-07 06:07 957K
20260507T00Z_MSC_CAPS_GeopotentialHeight_IsbL-1015_RLatLon0.03_PT009H.grib2 2026-05-07 06:07 969K
20260507T00Z_MSC_CAPS_GeopotentialHeight_Sfc_RLatLon0.03_PT009H.grib2 2026-05-07 06:07 1.0M
20260507T00Z_MSC_CAPS_IcePellets-Accum_Sfc_RLatLon0.03_PT009H.grib2 2026-05-07 06:07 5.5K
20260507T00Z_MSC_CAPS_LatentHeatNetFlux_Sfc_RLatLon0.03_PT009H.grib2 2026-05-07 06:07 1.8M
20260507T00Z_MSC_CAPS_LiftedIndex-MU-VT_IsbL-0500_RLatLon0.03_PT009H.grib2 2026-05-07 06:07 3.3M
20260507T00Z_MSC_CAPS_MixedLayerThickness_Sfc_RLatLon0.03_PT009H.nc 2026-05-07 06:12 16M
20260507T00Z_MSC_CAPS_NetLongwaveRadiationFlux-Accum_Sfc_RLatLon0.03_PT009H.grib2 2026-05-07 06:07 3.0M
20260507T00Z_MSC_CAPS_NetShortwaveRadiationFlux-Accum_Sfc_RLatLon0.03_PT009H.grib2 2026-05-07 06:07 2.2M
20260507T00Z_MSC_CAPS_PlanetaryBoundaryLayerHeight_Sfc_RLatLon0.03_PT009H.grib2 2026-05-07 06:07 2.9M
20260507T00Z_MSC_CAPS_Precip-Accum_Sfc_RLatLon0.03_PT009H.grib2 2026-05-07 06:07 3.4M
20260507T00Z_MSC_CAPS_PrecipRate_Sfc_RLatLon0.03_PT009H.grib2 2026-05-07 06:07 493K
20260507T00Z_MSC_CAPS_PrecipType-Instant_Sfc_RLatLon0.03_PT009H.grib2 2026-05-07 06:07 1.8M
20260507T00Z_MSC_CAPS_Pressure_MSL_RLatLon0.03_PT009H.grib2 2026-05-07 06:07 763K
20260507T00Z_MSC_CAPS_Pressure_Sfc_RLatLon0.03_PT009H.grib2 2026-05-07 06:07 1.2M
20260507T00Z_MSC_CAPS_RadiativeTemp_Sfc_RLatLon0.03_PT009H.grib2 2026-05-07 06:07 2.1M
20260507T00Z_MSC_CAPS_Rain-Accum_Sfc_RLatLon0.03_PT009H.grib2 2026-05-07 06:07 1.6M
20260507T00Z_MSC_CAPS_RelativeHumidity_AGL-120m_RLatLon0.03_PT009H.grib2 2026-05-07 06:07 2.8M
20260507T00Z_MSC_CAPS_RelativeHumidity_AGL-2m_RLatLon0.03_PT009H.grib2 2026-05-07 06:07 3.0M
20260507T00Z_MSC_CAPS_RelativeHumidity_AGL-40m_RLatLon0.03_PT009H.grib2 2026-05-07 06:07 2.9M
20260507T00Z_MSC_CAPS_RelativeHumidity_AGL-80m_RLatLon0.03_PT009H.grib2 2026-05-07 06:07 2.8M
20260507T00Z_MSC_CAPS_RelativeHumidity_IsbL-0050_RLatLon0.03_PT009H.grib2 2026-05-07 06:07 706K
20260507T00Z_MSC_CAPS_RelativeHumidity_IsbL-0100_RLatLon0.03_PT009H.grib2 2026-05-07 06:07 806K
20260507T00Z_MSC_CAPS_RelativeHumidity_IsbL-0150_RLatLon0.03_PT009H.grib2 2026-05-07 06:07 566K
20260507T00Z_MSC_CAPS_RelativeHumidity_IsbL-0175_RLatLon0.03_PT009H.grib2 2026-05-07 06:07 462K
20260507T00Z_MSC_CAPS_RelativeHumidity_IsbL-0200_RLatLon0.03_PT009H.grib2 2026-05-07 06:07 650K
20260507T00Z_MSC_CAPS_RelativeHumidity_IsbL-0225_RLatLon0.03_PT009H.grib2 2026-05-07 06:07 886K
20260507T00Z_MSC_CAPS_RelativeHumidity_IsbL-0250_RLatLon0.03_PT009H.grib2 2026-05-07 06:07 1.1M
20260507T00Z_MSC_CAPS_RelativeHumidity_IsbL-0275_RLatLon0.03_PT009H.grib2 2026-05-07 06:07 1.4M
20260507T00Z_MSC_CAPS_RelativeHumidity_IsbL-0300_RLatLon0.03_PT009H.grib2 2026-05-07 06:07 1.7M
20260507T00Z_MSC_CAPS_RelativeHumidity_IsbL-0350_RLatLon0.03_PT009H.grib2 2026-05-07 06:07 1.9M
20260507T00Z_MSC_CAPS_RelativeHumidity_IsbL-0400_RLatLon0.03_PT009H.grib2 2026-05-07 06:07 2.1M
20260507T00Z_MSC_CAPS_RelativeHumidity_IsbL-0450_RLatLon0.03_PT009H.grib2 2026-05-07 06:07 1.9M
20260507T00Z_MSC_CAPS_RelativeHumidity_IsbL-0500_RLatLon0.03_PT009H.grib2 2026-05-07 06:07 2.1M
20260507T00Z_MSC_CAPS_RelativeHumidity_IsbL-0550_RLatLon0.03_PT009H.grib2 2026-05-07 06:07 2.0M
20260507T00Z_MSC_CAPS_RelativeHumidity_IsbL-0600_RLatLon0.03_PT009H.grib2 2026-05-07 06:07 2.0M
20260507T00Z_MSC_CAPS_RelativeHumidity_IsbL-0650_RLatLon0.03_PT009H.grib2 2026-05-07 06:07 2.2M
20260507T00Z_MSC_CAPS_RelativeHumidity_IsbL-0700_RLatLon0.03_PT009H.grib2 2026-05-07 06:07 2.2M
20260507T00Z_MSC_CAPS_RelativeHumidity_IsbL-0750_RLatLon0.03_PT009H.grib2 2026-05-07 06:07 2.3M
20260507T00Z_MSC_CAPS_RelativeHumidity_IsbL-0800_RLatLon0.03_PT009H.grib2 2026-05-07 06:07 2.4M
20260507T00Z_MSC_CAPS_RelativeHumidity_IsbL-0850_RLatLon0.03_PT009H.grib2 2026-05-07 06:07 2.5M
20260507T00Z_MSC_CAPS_RelativeHumidity_IsbL-0875_RLatLon0.03_PT009H.grib2 2026-05-07 06:07 2.7M
20260507T00Z_MSC_CAPS_RelativeHumidity_IsbL-0900_RLatLon0.03_PT009H.grib2 2026-05-07 06:07 2.7M
20260507T00Z_MSC_CAPS_RelativeHumidity_IsbL-0925_RLatLon0.03_PT009H.grib2 2026-05-07 06:07 2.8M
20260507T00Z_MSC_CAPS_RelativeHumidity_IsbL-0950_RLatLon0.03_PT009H.grib2 2026-05-07 06:07 2.8M
20260507T00Z_MSC_CAPS_RelativeHumidity_IsbL-0970_RLatLon0.03_PT009H.grib2 2026-05-07 06:07 2.9M
20260507T00Z_MSC_CAPS_RelativeHumidity_IsbL-0985_RLatLon0.03_PT009H.grib2 2026-05-07 06:07 2.9M
20260507T00Z_MSC_CAPS_RelativeHumidity_IsbL-1000_RLatLon0.03_PT009H.grib2 2026-05-07 06:07 3.0M
20260507T00Z_MSC_CAPS_RelativeHumidity_IsbL-1015_RLatLon0.03_PT009H.grib2 2026-05-07 06:07 3.0M
20260507T00Z_MSC_CAPS_Runoff-Accum_Sfc_RLatLon0.03_PT009H.grib2 2026-05-07 06:07 248K
20260507T00Z_MSC_CAPS_SeaIceAreaFraction_Sfc_RLatLon0.03_PT009H.nc 2026-05-07 06:12 15M
20260507T00Z_MSC_CAPS_SeaIceCompressiveStrength_Sfc_RLatLon0.03_PT009H.nc 2026-05-07 06:12 15M
20260507T00Z_MSC_CAPS_SeaIceDivergence_Sfc_RLatLon0.03_PT009H.nc 2026-05-07 06:12 15M
20260507T00Z_MSC_CAPS_SeaIceInternalPressure_Sfc_RLatLon0.03_PT009H.nc 2026-05-07 06:12 15M
20260507T00Z_MSC_CAPS_SeaIceShear_Sfc_RLatLon0.03_PT009H.nc 2026-05-07 06:12 14M
20260507T00Z_MSC_CAPS_SeaIceSnowTemp_Sfc_RLatLon0.03_PT009H.nc 2026-05-07 06:12 15M
20260507T00Z_MSC_CAPS_SeaIceSnowVolume_Sfc_RLatLon0.03_PT009H.nc 2026-05-07 06:12 15M
20260507T00Z_MSC_CAPS_SeaIceVelocityX_Sfc_RLatLon0.03_PT009H.nc 2026-05-07 06:12 15M
20260507T00Z_MSC_CAPS_SeaIceVelocityY_Sfc_RLatLon0.03_PT009H.nc 2026-05-07 06:12 15M
20260507T00Z_MSC_CAPS_SeaIceVolume_Sfc_RLatLon0.03_PT009H.nc 2026-05-07 06:12 15M
20260507T00Z_MSC_CAPS_SeaSurfaceHeight_Sfc_RLatLon0.03_PT009H.nc 2026-05-07 06:12 16M
20260507T00Z_MSC_CAPS_SeaWaterSalinity_DBS-0.5m_RLatLon0.03_PT009H.nc 2026-05-07 06:12 16M
20260507T00Z_MSC_CAPS_SeaWaterSalinity_DBS-all_RLatLon0.03_PT009H.nc 2026-05-07 06:12 107M
20260507T00Z_MSC_CAPS_SeaWaterTemp_DBS-0.5m_RLatLon0.03_PT009H.nc 2026-05-07 06:12 15M
20260507T00Z_MSC_CAPS_SeaWaterTemp_DBS-all_RLatLon0.03_PT009H.nc 2026-05-07 06:12 88M
20260507T00Z_MSC_CAPS_SeaWaterVelocityX_DBS-0.5m_RLatLon0.03_PT009H.nc 2026-05-07 06:12 17M
20260507T00Z_MSC_CAPS_SeaWaterVelocityX_DBS-all_RLatLon0.03_PT009H.nc 2026-05-07 06:12 209M
20260507T00Z_MSC_CAPS_SeaWaterVelocityY_DBS-0.5m_RLatLon0.03_PT009H.nc 2026-05-07 06:12 18M
20260507T00Z_MSC_CAPS_SeaWaterVelocityY_DBS-all_RLatLon0.03_PT009H.nc 2026-05-07 06:12 214M
20260507T00Z_MSC_CAPS_SensibleHeatNetFlux_Sfc_RLatLon0.03_PT009H.grib2 2026-05-07 06:07 2.0M
20260507T00Z_MSC_CAPS_ShowalterIndex_IsbL-0500_RLatLon0.03_PT009H.grib2 2026-05-07 06:07 4.3M
20260507T00Z_MSC_CAPS_Snow-Accum_Sfc_RLatLon0.03_PT009H.grib2 2026-05-07 06:07 2.8M
20260507T00Z_MSC_CAPS_SnowDensity_Sfc_RLatLon0.03_PT009H.grib2 2026-05-07 06:07 1.2M
20260507T00Z_MSC_CAPS_SnowDepthWaterEquivalent_Sfc_RLatLon0.03_PT009H.grib2 2026-05-07 06:07 641K
20260507T00Z_MSC_CAPS_SnowDepth_Sfc_RLatLon0.03_PT009H.grib2 2026-05-07 06:07 1.1M
20260507T00Z_MSC_CAPS_SoilTemp_DBS-0to10cm_RLatLon0.03_PT009H.grib2 2026-05-07 06:07 1.4M
20260507T00Z_MSC_CAPS_SoilTemp_Sfc_RLatLon0.03_PT009H.grib2 2026-05-07 06:07 1.9M
20260507T00Z_MSC_CAPS_SoilVolumetricIceContent_Sfc_RLatLon0.03_PT009H.grib2 2026-05-07 06:07 1.3M
20260507T00Z_MSC_CAPS_SoilVolumetricWaterContent_DBS-0to10cm_RLatLon0.03_PT009H.grib2 2026-05-07 06:07 1.3M
20260507T00Z_MSC_CAPS_SoilVolumetricWaterContent_DBS-0to1cm_RLatLon0.03_PT009H.grib2 2026-05-07 06:07 1.7M
20260507T00Z_MSC_CAPS_SpecificHumidity_AGL-120m_RLatLon0.03_PT009H.grib2 2026-05-07 06:07 1.4M
20260507T00Z_MSC_CAPS_SpecificHumidity_AGL-2m_RLatLon0.03_PT009H.grib2 2026-05-07 06:07 1.8M
20260507T00Z_MSC_CAPS_SpecificHumidity_AGL-40m_RLatLon0.03_PT009H.grib2 2026-05-07 06:07 1.5M
20260507T00Z_MSC_CAPS_SpecificHumidity_AGL-80m_RLatLon0.03_PT009H.grib2 2026-05-07 06:07 1.5M
20260507T00Z_MSC_CAPS_SpecificHumidity_IsbL-0050_RLatLon0.03_PT009H.grib2 2026-05-07 06:07 878K
20260507T00Z_MSC_CAPS_SpecificHumidity_IsbL-0100_RLatLon0.03_PT009H.grib2 2026-05-07 06:07 1.1M
20260507T00Z_MSC_CAPS_SpecificHumidity_IsbL-0150_RLatLon0.03_PT009H.grib2 2026-05-07 06:07 972K
20260507T00Z_MSC_CAPS_SpecificHumidity_IsbL-0175_RLatLon0.03_PT009H.grib2 2026-05-07 06:07 966K
20260507T00Z_MSC_CAPS_SpecificHumidity_IsbL-0200_RLatLon0.03_PT009H.grib2 2026-05-07 06:07 856K
20260507T00Z_MSC_CAPS_SpecificHumidity_IsbL-0225_RLatLon0.03_PT009H.grib2 2026-05-07 06:07 1.0M
20260507T00Z_MSC_CAPS_SpecificHumidity_IsbL-0250_RLatLon0.03_PT009H.grib2 2026-05-07 06:07 1.0M
20260507T00Z_MSC_CAPS_SpecificHumidity_IsbL-0275_RLatLon0.03_PT009H.grib2 2026-05-07 06:07 1.1M
20260507T00Z_MSC_CAPS_SpecificHumidity_IsbL-0300_RLatLon0.03_PT009H.grib2 2026-05-07 06:07 1.0M
20260507T00Z_MSC_CAPS_SpecificHumidity_IsbL-0350_RLatLon0.03_PT009H.grib2 2026-05-07 06:07 1.0M
20260507T00Z_MSC_CAPS_SpecificHumidity_IsbL-0400_RLatLon0.03_PT009H.grib2 2026-05-07 06:07 973K
20260507T00Z_MSC_CAPS_SpecificHumidity_IsbL-0450_RLatLon0.03_PT009H.grib2 2026-05-07 06:07 1.1M
20260507T00Z_MSC_CAPS_SpecificHumidity_IsbL-0500_RLatLon0.03_PT009H.grib2 2026-05-07 06:07 1.0M
20260507T00Z_MSC_CAPS_SpecificHumidity_IsbL-0550_RLatLon0.03_PT009H.grib2 2026-05-07 06:07 1.2M
20260507T00Z_MSC_CAPS_SpecificHumidity_IsbL-0600_RLatLon0.03_PT009H.grib2 2026-05-07 06:07 1.3M
20260507T00Z_MSC_CAPS_SpecificHumidity_IsbL-0650_RLatLon0.03_PT009H.grib2 2026-05-07 06:07 1.4M
20260507T00Z_MSC_CAPS_SpecificHumidity_IsbL-0700_RLatLon0.03_PT009H.grib2 2026-05-07 06:07 1.6M
20260507T00Z_MSC_CAPS_SpecificHumidity_IsbL-0750_RLatLon0.03_PT009H.grib2 2026-05-07 06:07 1.4M
20260507T00Z_MSC_CAPS_SpecificHumidity_IsbL-0800_RLatLon0.03_PT009H.grib2 2026-05-07 06:07 1.5M
20260507T00Z_MSC_CAPS_SpecificHumidity_IsbL-0850_RLatLon0.03_PT009H.grib2 2026-05-07 06:07 1.7M
20260507T00Z_MSC_CAPS_SpecificHumidity_IsbL-0875_RLatLon0.03_PT009H.grib2 2026-05-07 06:07 1.8M
20260507T00Z_MSC_CAPS_SpecificHumidity_IsbL-0900_RLatLon0.03_PT009H.grib2 2026-05-07 06:07 1.9M
20260507T00Z_MSC_CAPS_SpecificHumidity_IsbL-0925_RLatLon0.03_PT009H.grib2 2026-05-07 06:07 2.0M
20260507T00Z_MSC_CAPS_SpecificHumidity_IsbL-0950_RLatLon0.03_PT009H.grib2 2026-05-07 06:07 1.6M
20260507T00Z_MSC_CAPS_SpecificHumidity_IsbL-0970_RLatLon0.03_PT009H.grib2 2026-05-07 06:07 1.7M
20260507T00Z_MSC_CAPS_SpecificHumidity_IsbL-0985_RLatLon0.03_PT009H.grib2 2026-05-07 06:07 1.7M
20260507T00Z_MSC_CAPS_SpecificHumidity_IsbL-1000_RLatLon0.03_PT009H.grib2 2026-05-07 06:07 1.8M
20260507T00Z_MSC_CAPS_SpecificHumidity_IsbL-1015_RLatLon0.03_PT009H.grib2 2026-05-07 06:07 1.8M
20260507T00Z_MSC_CAPS_SpecificHumidity_Sfc_RLatLon0.03_PT009H.grib2 2026-05-07 06:07 2.1M
20260507T00Z_MSC_CAPS_StormRelativeHelicity_Sfc_RLatLon0.03_PT009H.grib2 2026-05-07 06:07 3.1M
20260507T00Z_MSC_CAPS_Thickness_IsbL-1000to0500_RLatLon0.03_PT009H.grib2 2026-05-07 06:07 408K
20260507T00Z_MSC_CAPS_TotalCloudCover_Sfc_RLatLon0.03_PT009H.grib2 2026-05-07 06:07 3.7M
20260507T00Z_MSC_CAPS_TurboclineDepth_Sfc_RLatLon0.03_PT009H.nc 2026-05-07 06:12 16M
20260507T00Z_MSC_CAPS_UpwardLongwaveRadiationFlux_NTAtm_RLatLon0.03_PT009H.grib2 2026-05-07 06:07 3.0M
20260507T00Z_MSC_CAPS_UpwardShortwaveRadiationFlux_NTAtm_RLatLon0.03_PT009H.grib2 2026-05-07 06:07 2.0M
20260507T00Z_MSC_CAPS_VerticalVelocity_IsbL-0250_RLatLon0.03_PT009H.grib2 2026-05-07 06:07 917K
20260507T00Z_MSC_CAPS_VerticalVelocity_IsbL-0500_RLatLon0.03_PT009H.grib2 2026-05-07 06:07 1.1M
20260507T00Z_MSC_CAPS_VerticalVelocity_IsbL-0700_RLatLon0.03_PT009H.grib2 2026-05-07 06:07 957K
20260507T00Z_MSC_CAPS_VerticalVelocity_IsbL-0850_RLatLon0.03_PT009H.grib2 2026-05-07 06:07 1.1M
20260507T00Z_MSC_CAPS_VerticalVelocity_IsbL-1000_RLatLon0.03_PT009H.grib2 2026-05-07 06:07 1.3M
20260507T00Z_MSC_CAPS_WindDir_AGL-10m_RLatLon0.03_PT009H.grib2 2026-05-07 06:07 2.5M
20260507T00Z_MSC_CAPS_WindDir_AGL-120m_RLatLon0.03_PT009H.grib2 2026-05-07 06:07 1.3M
20260507T00Z_MSC_CAPS_WindDir_AGL-40m_RLatLon0.03_PT009H.grib2 2026-05-07 06:07 1.4M
20260507T00Z_MSC_CAPS_WindDir_AGL-80m_RLatLon0.03_PT009H.grib2 2026-05-07 06:07 1.3M
20260507T00Z_MSC_CAPS_WindDir_IsbL-0050_RLatLon0.03_PT009H.grib2 2026-05-07 06:07 1.1M
20260507T00Z_MSC_CAPS_WindDir_IsbL-0100_RLatLon0.03_PT009H.grib2 2026-05-07 06:07 1.1M
20260507T00Z_MSC_CAPS_WindDir_IsbL-0150_RLatLon0.03_PT009H.grib2 2026-05-07 06:07 1.1M
20260507T00Z_MSC_CAPS_WindDir_IsbL-0175_RLatLon0.03_PT009H.grib2 2026-05-07 06:07 1.0M
20260507T00Z_MSC_CAPS_WindDir_IsbL-0200_RLatLon0.03_PT009H.grib2 2026-05-07 06:07 1.1M
20260507T00Z_MSC_CAPS_WindDir_IsbL-0225_RLatLon0.03_PT009H.grib2 2026-05-07 06:07 1.1M
20260507T00Z_MSC_CAPS_WindDir_IsbL-0250_RLatLon0.03_PT009H.grib2 2026-05-07 06:07 1.1M
20260507T00Z_MSC_CAPS_WindDir_IsbL-0275_RLatLon0.03_PT009H.grib2 2026-05-07 06:07 1.1M
20260507T00Z_MSC_CAPS_WindDir_IsbL-0300_RLatLon0.03_PT009H.grib2 2026-05-07 06:07 1.1M
20260507T00Z_MSC_CAPS_WindDir_IsbL-0350_RLatLon0.03_PT009H.grib2 2026-05-07 06:07 1.1M
20260507T00Z_MSC_CAPS_WindDir_IsbL-0400_RLatLon0.03_PT009H.grib2 2026-05-07 06:07 1.2M
20260507T00Z_MSC_CAPS_WindDir_IsbL-0450_RLatLon0.03_PT009H.grib2 2026-05-07 06:07 1.2M
20260507T00Z_MSC_CAPS_WindDir_IsbL-0500_RLatLon0.03_PT009H.grib2 2026-05-07 06:07 1.1M
20260507T00Z_MSC_CAPS_WindDir_IsbL-0550_RLatLon0.03_PT009H.grib2 2026-05-07 06:07 1.2M
20260507T00Z_MSC_CAPS_WindDir_IsbL-0600_RLatLon0.03_PT009H.grib2 2026-05-07 06:07 1.3M
20260507T00Z_MSC_CAPS_WindDir_IsbL-0650_RLatLon0.03_PT009H.grib2 2026-05-07 06:07 1.4M
20260507T00Z_MSC_CAPS_WindDir_IsbL-0700_RLatLon0.03_PT009H.grib2 2026-05-07 06:07 1.6M
20260507T00Z_MSC_CAPS_WindDir_IsbL-0750_RLatLon0.03_PT009H.grib2 2026-05-07 06:07 1.6M
20260507T00Z_MSC_CAPS_WindDir_IsbL-0800_RLatLon0.03_PT009H.grib2 2026-05-07 06:07 1.8M
20260507T00Z_MSC_CAPS_WindDir_IsbL-0850_RLatLon0.03_PT009H.grib2 2026-05-07 06:07 1.9M
20260507T00Z_MSC_CAPS_WindDir_IsbL-0875_RLatLon0.03_PT009H.grib2 2026-05-07 06:07 1.9M
20260507T00Z_MSC_CAPS_WindDir_IsbL-0900_RLatLon0.03_PT009H.grib2 2026-05-07 06:07 2.0M
20260507T00Z_MSC_CAPS_WindDir_IsbL-0925_RLatLon0.03_PT009H.grib2 2026-05-07 06:07 2.1M
20260507T00Z_MSC_CAPS_WindDir_IsbL-0950_RLatLon0.03_PT009H.grib2 2026-05-07 06:07 2.1M
20260507T00Z_MSC_CAPS_WindDir_IsbL-0970_RLatLon0.03_PT009H.grib2 2026-05-07 06:07 2.2M
20260507T00Z_MSC_CAPS_WindDir_IsbL-0985_RLatLon0.03_PT009H.grib2 2026-05-07 06:07 2.3M
20260507T00Z_MSC_CAPS_WindDir_IsbL-1000_RLatLon0.03_PT009H.grib2 2026-05-07 06:07 2.4M
20260507T00Z_MSC_CAPS_WindDir_IsbL-1015_RLatLon0.03_PT009H.grib2 2026-05-07 06:07 2.4M
20260507T00Z_MSC_CAPS_WindGust-Max_AGL-10m_RLatLon0.03_PT009H.grib2 2026-05-07 06:07 2.5M
20260507T00Z_MSC_CAPS_WindGust-Min_AGL-10m_RLatLon0.03_PT009H.grib2 2026-05-07 06:07 2.3M
20260507T00Z_MSC_CAPS_WindGust_AGL-10m_RLatLon0.03_PT009H.grib2 2026-05-07 06:07 2.4M
20260507T00Z_MSC_CAPS_WindSpeed_AGL-10m_RLatLon0.03_PT009H.grib2 2026-05-07 06:07 2.1M
20260507T00Z_MSC_CAPS_WindSpeed_AGL-120m_RLatLon0.03_PT009H.grib2 2026-05-07 06:07 1.1M
20260507T00Z_MSC_CAPS_WindSpeed_AGL-40m_RLatLon0.03_PT009H.grib2 2026-05-07 06:07 1.2M
20260507T00Z_MSC_CAPS_WindSpeed_AGL-80m_RLatLon0.03_PT009H.grib2 2026-05-07 06:07 1.1M
20260507T00Z_MSC_CAPS_WindSpeed_IsbL-0050_RLatLon0.03_PT009H.grib2 2026-05-07 06:07 942K
20260507T00Z_MSC_CAPS_WindSpeed_IsbL-0100_RLatLon0.03_PT009H.grib2 2026-05-07 06:07 1.3M
20260507T00Z_MSC_CAPS_WindSpeed_IsbL-0150_RLatLon0.03_PT009H.grib2 2026-05-07 06:07 1.0M
20260507T00Z_MSC_CAPS_WindSpeed_IsbL-0175_RLatLon0.03_PT009H.grib2 2026-05-07 06:07 1.2M
20260507T00Z_MSC_CAPS_WindSpeed_IsbL-0200_RLatLon0.03_PT009H.grib2 2026-05-07 06:07 1.3M
20260507T00Z_MSC_CAPS_WindSpeed_IsbL-0225_RLatLon0.03_PT009H.grib2 2026-05-07 06:07 1.3M
20260507T00Z_MSC_CAPS_WindSpeed_IsbL-0250_RLatLon0.03_PT009H.grib2 2026-05-07 06:07 1.0M
20260507T00Z_MSC_CAPS_WindSpeed_IsbL-0275_RLatLon0.03_PT009H.grib2 2026-05-07 06:07 1.0M
20260507T00Z_MSC_CAPS_WindSpeed_IsbL-0300_RLatLon0.03_PT009H.grib2 2026-05-07 06:07 1.0M
20260507T00Z_MSC_CAPS_WindSpeed_IsbL-0350_RLatLon0.03_PT009H.grib2 2026-05-07 06:07 1.0M
20260507T00Z_MSC_CAPS_WindSpeed_IsbL-0400_RLatLon0.03_PT009H.grib2 2026-05-07 06:07 1.0M
20260507T00Z_MSC_CAPS_WindSpeed_IsbL-0450_RLatLon0.03_PT009H.grib2 2026-05-07 06:07 1.3M
20260507T00Z_MSC_CAPS_WindSpeed_IsbL-0500_RLatLon0.03_PT009H.grib2 2026-05-07 06:07 1.3M
20260507T00Z_MSC_CAPS_WindSpeed_IsbL-0550_RLatLon0.03_PT009H.grib2 2026-05-07 06:07 1.4M
20260507T00Z_MSC_CAPS_WindSpeed_IsbL-0600_RLatLon0.03_PT009H.grib2 2026-05-07 06:07 1.4M
20260507T00Z_MSC_CAPS_WindSpeed_IsbL-0650_RLatLon0.03_PT009H.grib2 2026-05-07 06:07 1.3M
20260507T00Z_MSC_CAPS_WindSpeed_IsbL-0700_RLatLon0.03_PT009H.grib2 2026-05-07 06:07 1.5M
20260507T00Z_MSC_CAPS_WindSpeed_IsbL-0750_RLatLon0.03_PT009H.grib2 2026-05-07 06:07 1.6M
20260507T00Z_MSC_CAPS_WindSpeed_IsbL-0800_RLatLon0.03_PT009H.grib2 2026-05-07 06:07 1.7M
20260507T00Z_MSC_CAPS_WindSpeed_IsbL-0850_RLatLon0.03_PT009H.grib2 2026-05-07 06:07 1.8M
20260507T00Z_MSC_CAPS_WindSpeed_IsbL-0875_RLatLon0.03_PT009H.grib2 2026-05-07 06:07 1.8M
20260507T00Z_MSC_CAPS_WindSpeed_IsbL-0900_RLatLon0.03_PT009H.grib2 2026-05-07 06:07 1.8M
20260507T00Z_MSC_CAPS_WindSpeed_IsbL-0925_RLatLon0.03_PT009H.grib2 2026-05-07 06:07 1.9M
20260507T00Z_MSC_CAPS_WindSpeed_IsbL-0950_RLatLon0.03_PT009H.grib2 2026-05-07 06:07 1.9M
20260507T00Z_MSC_CAPS_WindSpeed_IsbL-0970_RLatLon0.03_PT009H.grib2 2026-05-07 06:07 2.0M
20260507T00Z_MSC_CAPS_WindSpeed_IsbL-0985_RLatLon0.03_PT009H.grib2 2026-05-07 06:07 2.0M
20260507T00Z_MSC_CAPS_WindSpeed_IsbL-1000_RLatLon0.03_PT009H.grib2 2026-05-07 06:07 2.0M
20260507T00Z_MSC_CAPS_WindSpeed_IsbL-1015_RLatLon0.03_PT009H.grib2 2026-05-07 06:07 2.1M
20260507T00Z_MSC_CAPS_WindU_AGL-10m_RLatLon0.03_PT009H.grib2 2026-05-07 06:07 1.9M
20260507T00Z_MSC_CAPS_WindU_AGL-120m_RLatLon0.03_PT009H.grib2 2026-05-07 06:07 899K
20260507T00Z_MSC_CAPS_WindU_AGL-40m_RLatLon0.03_PT009H.grib2 2026-05-07 06:07 1.2M
20260507T00Z_MSC_CAPS_WindU_AGL-80m_RLatLon0.03_PT009H.grib2 2026-05-07 06:07 1.2M
20260507T00Z_MSC_CAPS_WindU_IsbL-0050_RLatLon0.03_PT009H.grib2 2026-05-07 06:07 715K
20260507T00Z_MSC_CAPS_WindU_IsbL-0100_RLatLon0.03_PT009H.grib2 2026-05-07 06:07 952K
20260507T00Z_MSC_CAPS_WindU_IsbL-0150_RLatLon0.03_PT009H.grib2 2026-05-07 06:07 922K
20260507T00Z_MSC_CAPS_WindU_IsbL-0175_RLatLon0.03_PT009H.grib2 2026-05-07 06:07 736K
20260507T00Z_MSC_CAPS_WindU_IsbL-0200_RLatLon0.03_PT009H.grib2 2026-05-07 06:07 760K
20260507T00Z_MSC_CAPS_WindU_IsbL-0225_RLatLon0.03_PT009H.grib2 2026-05-07 06:07 903K
20260507T00Z_MSC_CAPS_WindU_IsbL-0250_RLatLon0.03_PT009H.grib2 2026-05-07 06:07 922K
20260507T00Z_MSC_CAPS_WindU_IsbL-0275_RLatLon0.03_PT009H.grib2 2026-05-07 06:07 714K
20260507T00Z_MSC_CAPS_WindU_IsbL-0300_RLatLon0.03_PT009H.grib2 2026-05-07 06:07 721K
20260507T00Z_MSC_CAPS_WindU_IsbL-0350_RLatLon0.03_PT009H.grib2 2026-05-07 06:07 732K
20260507T00Z_MSC_CAPS_WindU_IsbL-0400_RLatLon0.03_PT009H.grib2 2026-05-07 06:07 953K
20260507T00Z_MSC_CAPS_WindU_IsbL-0450_RLatLon0.03_PT009H.grib2 2026-05-07 06:07 965K
20260507T00Z_MSC_CAPS_WindU_IsbL-0500_RLatLon0.03_PT009H.grib2 2026-05-07 06:07 871K
20260507T00Z_MSC_CAPS_WindU_IsbL-0550_RLatLon0.03_PT009H.grib2 2026-05-07 06:07 903K
20260507T00Z_MSC_CAPS_WindU_IsbL-0600_RLatLon0.03_PT009H.grib2 2026-05-07 06:07 932K
20260507T00Z_MSC_CAPS_WindU_IsbL-0650_RLatLon0.03_PT009H.grib2 2026-05-07 06:07 970K
20260507T00Z_MSC_CAPS_WindU_IsbL-0700_RLatLon0.03_PT009H.grib2 2026-05-07 06:07 1.0M
20260507T00Z_MSC_CAPS_WindU_IsbL-0750_RLatLon0.03_PT009H.grib2 2026-05-07 06:07 1.1M
20260507T00Z_MSC_CAPS_WindU_IsbL-0800_RLatLon0.03_PT009H.grib2 2026-05-07 06:07 1.1M
20260507T00Z_MSC_CAPS_WindU_IsbL-0850_RLatLon0.03_PT009H.grib2 2026-05-07 06:07 1.2M
20260507T00Z_MSC_CAPS_WindU_IsbL-0875_RLatLon0.03_PT009H.grib2 2026-05-07 06:07 1.3M
20260507T00Z_MSC_CAPS_WindU_IsbL-0900_RLatLon0.03_PT009H.grib2 2026-05-07 06:07 1.3M
20260507T00Z_MSC_CAPS_WindU_IsbL-0925_RLatLon0.03_PT009H.grib2 2026-05-07 06:07 1.3M
20260507T00Z_MSC_CAPS_WindU_IsbL-0950_RLatLon0.03_PT009H.grib2 2026-05-07 06:07 1.4M
20260507T00Z_MSC_CAPS_WindU_IsbL-0970_RLatLon0.03_PT009H.grib2 2026-05-07 06:07 1.4M
20260507T00Z_MSC_CAPS_WindU_IsbL-0985_RLatLon0.03_PT009H.grib2 2026-05-07 06:07 1.4M
20260507T00Z_MSC_CAPS_WindU_IsbL-1000_RLatLon0.03_PT009H.grib2 2026-05-07 06:07 1.8M
20260507T00Z_MSC_CAPS_WindU_IsbL-1015_RLatLon0.03_PT009H.grib2 2026-05-07 06:07 1.9M
20260507T00Z_MSC_CAPS_WindV_AGL-10m_RLatLon0.03_PT009H.grib2 2026-05-07 06:07 2.0M
20260507T00Z_MSC_CAPS_WindV_AGL-120m_RLatLon0.03_PT009H.grib2 2026-05-07 06:07 1.2M
20260507T00Z_MSC_CAPS_WindV_AGL-40m_RLatLon0.03_PT009H.grib2 2026-05-07 06:07 1.2M
20260507T00Z_MSC_CAPS_WindV_AGL-80m_RLatLon0.03_PT009H.grib2 2026-05-07 06:07 1.2M
20260507T00Z_MSC_CAPS_WindV_IsbL-0050_RLatLon0.03_PT009H.grib2 2026-05-07 06:07 760K
20260507T00Z_MSC_CAPS_WindV_IsbL-0100_RLatLon0.03_PT009H.grib2 2026-05-07 06:07 779K
20260507T00Z_MSC_CAPS_WindV_IsbL-0150_RLatLon0.03_PT009H.grib2 2026-05-07 06:07 1.0M
20260507T00Z_MSC_CAPS_WindV_IsbL-0175_RLatLon0.03_PT009H.grib2 2026-05-07 06:07 725K
20260507T00Z_MSC_CAPS_WindV_IsbL-0200_RLatLon0.03_PT009H.grib2 2026-05-07 06:07 875K
20260507T00Z_MSC_CAPS_WindV_IsbL-0225_RLatLon0.03_PT009H.grib2 2026-05-07 06:07 896K
20260507T00Z_MSC_CAPS_WindV_IsbL-0250_RLatLon0.03_PT009H.grib2 2026-05-07 06:07 913K
20260507T00Z_MSC_CAPS_WindV_IsbL-0275_RLatLon0.03_PT009H.grib2 2026-05-07 06:07 919K
20260507T00Z_MSC_CAPS_WindV_IsbL-0300_RLatLon0.03_PT009H.grib2 2026-05-07 06:07 926K
20260507T00Z_MSC_CAPS_WindV_IsbL-0350_RLatLon0.03_PT009H.grib2 2026-05-07 06:07 944K
20260507T00Z_MSC_CAPS_WindV_IsbL-0400_RLatLon0.03_PT009H.grib2 2026-05-07 06:07 947K
20260507T00Z_MSC_CAPS_WindV_IsbL-0450_RLatLon0.03_PT009H.grib2 2026-05-07 06:07 962K
20260507T00Z_MSC_CAPS_WindV_IsbL-0500_RLatLon0.03_PT009H.grib2 2026-05-07 06:07 865K
20260507T00Z_MSC_CAPS_WindV_IsbL-0550_RLatLon0.03_PT009H.grib2 2026-05-07 06:07 896K
20260507T00Z_MSC_CAPS_WindV_IsbL-0600_RLatLon0.03_PT009H.grib2 2026-05-07 06:07 926K
20260507T00Z_MSC_CAPS_WindV_IsbL-0650_RLatLon0.03_PT009H.grib2 2026-05-07 06:07 961K
20260507T00Z_MSC_CAPS_WindV_IsbL-0700_RLatLon0.03_PT009H.grib2 2026-05-07 06:07 1.1M
20260507T00Z_MSC_CAPS_WindV_IsbL-0750_RLatLon0.03_PT009H.grib2 2026-05-07 06:07 1.1M
20260507T00Z_MSC_CAPS_WindV_IsbL-0800_RLatLon0.03_PT009H.grib2 2026-05-07 06:07 1.1M
20260507T00Z_MSC_CAPS_WindV_IsbL-0850_RLatLon0.03_PT009H.grib2 2026-05-07 06:07 1.2M
20260507T00Z_MSC_CAPS_WindV_IsbL-0875_RLatLon0.03_PT009H.grib2 2026-05-07 06:07 1.2M
20260507T00Z_MSC_CAPS_WindV_IsbL-0900_RLatLon0.03_PT009H.grib2 2026-05-07 06:07 1.3M
20260507T00Z_MSC_CAPS_WindV_IsbL-0925_RLatLon0.03_PT009H.grib2 2026-05-07 06:07 1.7M
20260507T00Z_MSC_CAPS_WindV_IsbL-0950_RLatLon0.03_PT009H.grib2 2026-05-07 06:07 1.7M
20260507T00Z_MSC_CAPS_WindV_IsbL-0970_RLatLon0.03_PT009H.grib2 2026-05-07 06:07 1.7M
20260507T00Z_MSC_CAPS_WindV_IsbL-0985_RLatLon0.03_PT009H.grib2 2026-05-07 06:07 1.8M
20260507T00Z_MSC_CAPS_WindV_IsbL-1000_RLatLon0.03_PT009H.grib2 2026-05-07 06:07 2.0M
20260507T00Z_MSC_CAPS_WindV_IsbL-1015_RLatLon0.03_PT009H.grib2 2026-05-07 06:07 2.0M